EZY97TU LOWI-EGPH

Flight info

Callsign EZY97TU
Flight time 2h 19m
Altitude 38000
Route KOGOL M726 KEMES DCT GASKA DCT MAPOX DCT BIGGE DCT TOPPA DCT AGPED
Aircraft A320/M-SDE2E3FGHIJ1RWXYZ/LB1

Departure

Time 2026-04-24 16:35
Airport Innsbruck Airport (LOWI)

Arrival

Time 2026-04-24 18:54
Airport Edinburgh Airport (EGPH)
Time Latitude Longitude Altitude Speed Heading
2026-04-24 15:51 47.25791 11.34752 1904 ft 0 kts 173°
2026-04-24 16:26 47.25807 11.34749 1904 ft 4 kts 179°
2026-04-24 16:27 47.25833 11.34754 1904 ft 4 kts 206°
2026-04-24 16:27 47.25849 11.34775 1904 ft 2 kts 260°
2026-04-24 16:27 47.25849 11.34777 1904 ft 0 kts 261°
2026-04-24 16:31 47.25847 11.34764 1895 ft 4 kts 261°
2026-04-24 16:31 47.25841 11.34701 1894 ft 9 kts 261°
2026-04-24 16:31 47.25831 11.34599 1904 ft 10 kts 262°
2026-04-24 16:31 47.25822 11.34506 1891 ft 8 kts 262°
2026-04-24 16:32 47.25815 11.34454 1904 ft 8 kts 258°
2026-04-24 16:32 47.25793 11.34266 1894 ft 16 kts 262°
2026-04-24 16:32 47.25776 11.34113 1895 ft 14 kts 259°
2026-04-24 16:32 47.25777 11.33980 1899 ft 12 kts 287°
2026-04-24 16:33 47.25829 11.33844 1904 ft 17 kts 304°
2026-04-24 16:33 47.25898 11.33700 1904 ft 17 kts 305°
2026-04-24 16:33 47.25928 11.33550 1904 ft 15 kts 271°
2026-04-24 16:33 47.25912 11.33394 1904 ft 20 kts 259°
2026-04-24 16:34 47.25855 11.33200 1892 ft 19 kts 228°
2026-04-24 16:34 47.25871 11.33084 1892 ft 4 kts
2026-04-24 16:34 47.25881 11.33106 1904 ft 2 kts 78°
2026-04-24 16:34 47.25889 11.33177 1893 ft 26 kts 81°
2026-04-24 16:35 47.25967 11.33895 1894 ft 113 kts 81°
2026-04-24 16:35 47.26131 11.35361 2053 ft 164 kts 82°
2026-04-24 16:35 47.26311 11.37066 2876 ft 172 kts 82°
2026-04-24 16:35 47.26473 11.38890 3511 ft 185 kts 83°
2026-04-24 16:36 47.26642 11.40890 3811 ft 210 kts 82°
2026-04-24 16:36 47.26865 11.43154 4168 ft 236 kts 81°
2026-04-24 16:36 47.27242 11.45631 4591 ft 260 kts 71°
2026-04-24 16:36 47.27860 11.48182 5406 ft 267 kts 66°
2026-04-24 16:37 47.28598 11.50709 6319 ft 271 kts 64°
2026-04-24 16:37 47.29384 11.53272 7135 ft 278 kts 63°
2026-04-24 16:37 47.29925 11.55039 7647 ft 284 kts 64°
2026-04-24 16:37 47.31002 11.58633 8638 ft 294 kts 65°
2026-04-24 16:38 47.31821 11.61433 9300 ft 302 kts 65°
2026-04-24 16:38 47.32652 11.64288 9589 ft 305 kts 65°
2026-04-24 16:38 47.33514 11.67155 10331 ft 312 kts 59°
2026-04-24 16:38 47.34927 11.69670 10653 ft 328 kts 35°
2026-04-24 16:39 47.36977 11.71139 11304 ft 330 kts 11°
2026-04-24 16:39 47.39246 11.71280 12000 ft 329 kts 348°
2026-04-24 16:39 47.41355 11.70040 12762 ft 328 kts 325°
2026-04-24 16:39 47.43075 11.67813 13534 ft 331 kts 316°
2026-04-24 16:40 47.44738 11.65428 14261 ft 335 kts 316°
2026-04-24 16:40 47.46410 11.62999 14911 ft 339 kts 316°
2026-04-24 16:40 47.48101 11.60530 15534 ft 344 kts 316°
2026-04-24 16:40 47.49810 11.58032 16176 ft 348 kts 316°
2026-04-24 16:41 47.51521 11.55537 16797 ft 352 kts 316°
2026-04-24 16:41 47.53277 11.52983 17419 ft 356 kts 316°
2026-04-24 16:41 47.55053 11.50407 18002 ft 360 kts 317°
2026-04-24 16:41 47.56852 11.47798 18604 ft 363 kts 317°
2026-04-24 16:42 47.58663 11.45168 19195 ft 366 kts 317°
2026-04-24 16:42 47.60587 11.42681 19728 ft 369 kts 326°
2026-04-24 16:42 47.62823 11.40801 20253 ft 371 kts 338°
2026-04-24 16:42 47.65291 11.39653 20776 ft 374 kts 349°
2026-04-24 16:43 47.67881 11.39207 21307 ft 376 kts 355°
2026-04-24 16:43 47.70500 11.38868 21827 ft 379 kts 355°
2026-04-24 16:43 47.73137 11.38518 22345 ft 382 kts 355°
2026-04-24 16:43 47.75789 11.38157 22821 ft 384 kts 355°
2026-04-24 16:44 47.78459 11.37792 23298 ft 387 kts 355°
2026-04-24 16:44 47.81151 11.37426 23758 ft 390 kts 355°
2026-04-24 16:44 47.83861 11.37058 24202 ft 392 kts 355°
2026-04-24 16:44 47.86589 11.36695 24633 ft 395 kts 356°
2026-04-24 16:45 47.89337 11.36398 25069 ft 397 kts 356°
2026-04-24 16:45 47.92100 11.36160 25496 ft 399 kts 357°
2026-04-24 16:45 47.94882 11.35952 25895 ft 401 kts 358°
2026-04-24 16:45 47.97683 11.35750 26306 ft 403 kts 358°
2026-04-24 16:46 48.00491 11.35543 26706 ft 406 kts 357°
2026-04-24 16:46 48.03316 11.35322 27104 ft 407 kts 357°
2026-04-24 16:46 48.06152 11.35086 27515 ft 409 kts 356°
2026-04-24 16:46 48.08993 11.34751 27894 ft 411 kts 354°
2026-04-24 16:47 48.11839 11.34254 28255 ft 412 kts 353°
2026-04-24 16:47 48.14687 11.33660 28595 ft 415 kts 352°
2026-04-24 16:47 48.17551 11.33027 28922 ft 417 kts 352°
2026-04-24 16:47 48.20427 11.32392 29266 ft 419 kts 352°
2026-04-24 16:48 48.23322 11.31777 29607 ft 421 kts 352°
2026-04-24 16:48 48.26194 11.31190 29928 ft 423 kts 352°
2026-04-24 16:48 48.29116 11.30641 30255 ft 424 kts 353°
2026-04-24 16:48 48.32059 11.30167 30561 ft 426 kts 354°
2026-04-24 16:49 48.35011 11.29741 30840 ft 428 kts 354°
2026-04-24 16:49 48.37982 11.29323 31113 ft 430 kts 354°
2026-04-24 16:49 48.40962 11.28889 31384 ft 431 kts 354°
2026-04-24 16:49 48.43956 11.28434 31671 ft 432 kts 354°
2026-04-24 16:50 48.45974 11.28117 31916 ft 432 kts 354°
2026-04-24 16:50 48.49922 11.27489 32425 ft 430 kts 354°
2026-04-24 16:50 48.52895 11.27011 32762 ft 430 kts 353°
2026-04-24 16:50 48.55868 11.26532 33098 ft 429 kts 353°
2026-04-24 16:51 48.58831 11.26056 33443 ft 428 kts 353°
2026-04-24 16:51 48.61796 11.25581 33790 ft 428 kts 353°
2026-04-24 16:51 48.64755 11.25113 34131 ft 427 kts 353°
2026-04-24 16:51 48.67705 11.24643 34471 ft 426 kts 353°
2026-04-24 16:52 48.70654 11.24171 34786 ft 426 kts 353°
2026-04-24 16:52 48.73593 11.23698 35100 ft 424 kts 353°
2026-04-24 16:52 48.76528 11.23225 35392 ft 424 kts 353°
2026-04-24 16:52 48.79462 11.22752 35669 ft 423 kts 353°
2026-04-24 16:53 48.82388 11.22278 35934 ft 423 kts 353°
2026-04-24 16:53 48.85319 11.21943 36207 ft 423 kts 358°
2026-04-24 16:53 48.88260 11.21959 36448 ft 423 kts 359°
2026-04-24 16:53 48.91203 11.21982 36673 ft 423 kts 359°
2026-04-24 16:54 48.94135 11.22000 36967 ft 420 kts 358°
2026-04-24 16:54 48.97042 11.22016 37319 ft 416 kts 358°
2026-04-24 16:54 48.98956 11.22027 37516 ft 414 kts 358°
2026-04-24 16:54 49.01836 11.22040 37743 ft 414 kts 358°
2026-04-24 16:55 49.04714 11.22052 37939 ft 414 kts 358°
2026-04-24 16:55 49.07595 11.22070 38097 ft 414 kts 358°
2026-04-24 16:55 49.14273 11.22119 38136 ft 412 kts 358°
2026-04-24 16:56 49.20006 11.22153 38135 ft 412 kts 358°
2026-04-24 16:56 49.24809 11.22175 38139 ft 412 kts 358°
2026-04-24 16:57 49.30540 11.22222 38128 ft 412 kts 358°
2026-04-24 16:57 49.36272 11.22283 38132 ft 412 kts 358°
2026-04-24 16:58 49.42005 11.22332 38138 ft 412 kts 357°
2026-04-24 16:58 49.47739 11.22368 38140 ft 412 kts 357°
2026-04-24 16:59 49.53374 11.21688 38145 ft 407 kts 343°
2026-04-24 16:59 49.58520 11.18296 38149 ft 402 kts 324°
2026-04-24 17:00 49.60771 11.15749 38142 ft 401 kts 321°
2026-04-24 17:00 49.67469 11.07975 38135 ft 402 kts 322°
2026-04-24 17:01 49.74174 11.00194 38148 ft 402 kts 321°
2026-04-24 17:02 49.80874 10.92379 38151 ft 402 kts 321°
2026-04-24 17:02 49.85343 10.87140 38145 ft 404 kts 321°
2026-04-24 17:03 49.92058 10.79248 38156 ft 403 kts 321°
2026-04-24 17:04 49.96529 10.73989 38150 ft 403 kts 321°
2026-04-24 17:04 50.03219 10.66076 38148 ft 402 kts 320°
2026-04-24 17:05 50.07634 10.60834 38145 ft 402 kts 320°
2026-04-24 17:06 50.14284 10.52907 38144 ft 401 kts 320°
2026-04-24 17:06 50.20937 10.44987 38134 ft 401 kts 320°
2026-04-24 17:07 50.25374 10.39688 38135 ft 402 kts 320°
2026-04-24 17:08 50.34237 10.29010 38143 ft 401 kts 317°
2026-04-24 17:08 50.38041 10.22688 38148 ft 399 kts 308°
2026-04-24 17:09 50.45234 10.09525 38147 ft 399 kts 308°
2026-04-24 17:10 50.52471 9.96214 38151 ft 399 kts 308°
2026-04-24 17:12 50.66819 9.69631 38144 ft 399 kts 308°
2026-04-24 18:54 55.94848 -3.35872 116 ft 0 kts 208°